Location: Julian California
(33.0790°N, 116.6010°W)
Time: 11:03:29
(UTC-07:00)

OAO 1 - Pass Details

Date: 14 June 2018
Orbit: 774 x 783 km, 35.0° (Epoch: 18 June)

Event Time Altitude Azimuth Distance (km) Brightness Sun altitude
Rises 21:13:26 0° 282° (WNW) 3,237 8.9 -14.1°
Reaches altitude 10° 21:15:54 10° 283° (WNW) 2,309 8.0 -14.5°
Maximum altitude 21:21:22 90° 188° (S) 774 4.5 -15.3°
Enters shadow 21:25:03 21° 104° (ESE) 1,657 5.7 -15.9°
